sat.trackr.live / text

‹ back to catalog

STRIX-6

NORAD 68291 · 2026-056A

PAYLOAD ACTIVE UNKNOWN

§ Identity

Operator
Country
JPN
Launch date
2026-03-20
Launch site
RLLB
Launch vehicle
Mass (kg)
RCS (m²)

External: N2YO · Heavens-Above · Gunter

§ Orbital elements

Epoch: 2026-09-20T00:48:28.480608Z

Period
95.95 min
Inclination
50.2817°
Eccentricity
0.0016335
Mean motion
15.00763571 rev/d
Perigee alt
553.2 km
Apogee alt
575.9 km
Semi-major
6,942.7 km
B*
2.3817e-4
RAAN
261.2751°
Arg perigee
251.1496°
Mean anomaly
108.7682°
Rev number
2,751

§ Raw data

STRIX-61 68291U 26056A   26263.03366297  .00002797  00000+0  23817-3 0  99982 68291  50.2817 261.2751 0016335 251.1496 108.7682 15.00763571 27513

JSON: /api/v1/satellites/68291 · /tle

For live sub-satellite position, see the globe view (requires WebGL).

§ Visibility from observer

Set your observer location to see the next 7 days of passes ≥ 10°. The values pass through the URL so the page stays shareable.

No JS? Fill the form by hand. The geolocation button needs JavaScript.